User: anonymous   Login
Location: Appleton
(44.2618°N, 88.4157°W)
Time: 19:48:59
(UTC+00:00)
Language:

Explorer 11/Cluster Stage 4 - Orbit

View from above orbital plane
View from above orbital plane
View from above satellite
View from above satellite

Ground track
Ground track

The orbit data is extracted from the following two-line orbital elements,

1 00107U 61013A   21059.61741264  .00000613  00000-0  60381-4 0  9999
2 00107  28.7901 174.5498 0546052 282.4219  71.5795 14.09145205  2394
Epoch (UTC): 28 February 2021 14:49:04
Eccentricity: 0.0546052
inclination: 28.7901°
perigee height: 467 km
apogee height: 1257 km
right ascension of ascending node: 174.5498°
argument of perigee: 282.4219°
revolutions per day: 14.09145205
mean anomaly at epoch: 71.5795°
orbit number at epoch: 239

The dashed part of the orbit path shows where the satellite is in the earth's shadow,  

DLR